TimeEST,TemperatureF,Dew PointF,Humidity,Sea Level PressureIn,VisibilityMPH,Wind Direction,Wind SpeedMPH,Gust SpeedMPH,PrecipitationIn,Events,Conditions,WindDirDegrees,DateUTC
12:56 AM,12.9,9.0,84,30.16,10.0,Calm,Calm,-,N/A,,Clear,0,2012-12-28 05:56:00
1:56 AM,10.9,7.0,84,30.16,10.0,Calm,Calm,-,N/A,,Clear,0,2012-12-28 06:56:00
2:56 AM,10.0,7.0,87,30.18,9.0,Calm,Calm,-,N/A,,Clear,0,2012-12-28 07:56:00
3:12 AM,10.4,6.8,85,30.13,9.0,Calm,Calm,-,N/A,,Mostly Cloudy,0,2012-12-28 08:12:00
3:56 AM,10.9,6.1,81,30.17,10.0,Calm,Calm,-,N/A,,Scattered Clouds,0,2012-12-28 08:56:00
4:41 AM,12.2,8.6,85,30.12,8.0,Calm,Calm,-,N/A,,Mostly Cloudy,0,2012-12-28 09:41:00
4:56 AM,12.9,10.0,88,30.17,8.0,Calm,Calm,-,N/A,,Overcast,0,2012-12-28 09:56:00
5:56 AM,17.1,14.0,88,30.16,9.0,Calm,Calm,-,N/A,,Overcast,0,2012-12-28 10:56:00
6:56 AM,21.0,17.1,85,30.14,9.0,Calm,Calm,-,N/A,,Overcast,0,2012-12-28 11:56:00
7:56 AM,21.9,17.1,82,30.14,10.0,SE,3.5,-,N/A,,Overcast,140,2012-12-28 12:56:00
8:56 AM,21.9,18.0,85,30.15,10.0,South,3.5,-,N/A,,Overcast,170,2012-12-28 13:56:00
9:56 AM,23.0,19.0,85,30.18,9.0,Calm,Calm,-,N/A,,Overcast,0,2012-12-28 14:56:00
10:20 AM,24.8,19.4,80,30.14,7.0,Calm,Calm,-,N/A,,Overcast,0,2012-12-28 15:20:00
10:27 AM,24.8,19.4,80,30.14,2.0,Calm,Calm,-,0.00,Snow,Light Snow,0,2012-12-28 15:27:00
10:35 AM,24.8,19.4,80,30.14,1.0,Calm,Calm,-,0.00,Snow,Light Snow,0,2012-12-28 15:35:00
10:56 AM,24.1,21.0,88,30.20,1.0,Calm,Calm,-,0.01,Snow,Light Snow,0,2012-12-28 15:56:00
11:16 AM,24.8,21.2,86,30.15,0.5,Calm,Calm,-,0.01,Fog-Snow,Light Snow,0,2012-12-28 16:16:00
11:36 AM,24.8,21.2,86,30.13,1.0,Calm,Calm,-,0.01,Snow,Light Snow,0,2012-12-28 16:36:00
11:52 AM,24.8,21.2,86,30.12,1.0,Calm,Calm,-,0.01,Snow,Light Snow,0,2012-12-28 16:52:00
11:56 AM,26.1,21.9,84,30.17,1.0,Calm,Calm,-,0.01,Snow,Light Snow,0,2012-12-28 16:56:00
12:24 PM,26.6,23.0,86,30.08,2.0,Calm,Calm,-,0.00,Snow,Light Snow,0,2012-12-28 17:24:00
12:43 PM,26.6,23.0,86,30.07,3.0,ESE,3.5,-,0.00,Snow,Light Snow,120,2012-12-28 17:43:00
12:54 PM,26.6,23.0,86,30.06,4.0,SE,4.6,-,0.00,Snow,Light Snow,130,2012-12-28 17:54:00
12:56 PM,27.0,23.0,85,30.11,4.0,ESE,4.6,-,0.00,Snow,Light Snow,120,2012-12-28 17:56:00
1:24 PM,28.4,23.0,80,30.04,2.0,ESE,5.8,-,0.00,Snow,Light Snow,110,2012-12-28 18:24:00
1:44 PM,28.4,24.8,86,30.03,2.5,ESE,4.6,-,0.00,Snow,Light Snow,120,2012-12-28 18:44:00
1:56 PM,28.0,24.1,85,30.07,2.0,ESE,3.5,-,0.00,Snow,Light Snow,110,2012-12-28 18:56:00
2:11 PM,28.4,24.8,86,30.01,4.0,ESE,4.6,-,0.00,Snow,Light Snow,110,2012-12-28 19:11:00
2:29 PM,28.4,24.8,86,30.01,2.5,ESE,4.6,-,0.00,Snow,Light Snow,120,2012-12-28 19:29:00
2:56 PM,28.9,25.0,85,30.06,2.0,Calm,Calm,-,0.00,Snow,Light Snow,0,2012-12-28 19:56:00
3:10 PM,28.4,24.8,86,30.01,4.0,ESE,3.5,-,0.01,Snow,Light Snow,110,2012-12-28 20:10:00
3:18 PM,28.4,24.8,86,30.01,7.0,ESE,3.5,-,0.01,,Overcast,120,2012-12-28 20:18:00
3:56 PM,28.9,24.1,82,30.06,10.0,SE,6.9,-,0.01,,Overcast,130,2012-12-28 20:56:00
4:21 PM,28.4,24.8,86,29.99,10.0,SE,6.9,-,N/A,,Overcast,130,2012-12-28 21:21:00
4:39 PM,28.4,24.8,86,29.99,10.0,ESE,4.6,-,N/A,,Overcast,120,2012-12-28 21:39:00
4:56 PM,28.0,23.0,81,30.04,10.0,East,5.8,-,N/A,,Overcast,100,2012-12-28 21:56:00
5:17 PM,28.4,23.0,80,29.98,10.0,ESE,9.2,-,N/A,,Overcast,110,2012-12-28 22:17:00
5:53 PM,28.4,23.0,80,29.98,10.0,ESE,5.8,-,N/A,,Overcast,110,2012-12-28 22:53:00
5:56 PM,28.0,23.0,81,30.03,10.0,ESE,8.1,-,N/A,,Overcast,110,2012-12-28 22:56:00
6:27 PM,26.6,21.2,80,29.98,10.0,ESE,8.1,-,N/A,,Overcast,120,2012-12-28 23:27:00
7:56 PM,26.1,21.0,81,30.02,10.0,ESE,5.8,-,N/A,,Overcast,110,2012-12-29 00:56:00
8:35 PM,26.6,21.2,80,29.97,10.0,East,4.6,-,N/A,,Overcast,100,2012-12-29 01:35:00
8:56 PM,26.1,21.0,81,30.01,10.0,East,3.5,-,N/A,,Overcast,80,2012-12-29 01:56:00
9:56 PM,26.1,21.0,81,29.99,10.0,ENE,3.5,-,N/A,,Overcast,70,2012-12-29 02:56:00
10:56 PM,26.1,21.9,84,29.96,10.0,East,4.6,-,N/A,,Overcast,80,2012-12-29 03:56:00
11:56 PM,26.1,21.9,84,29.94,10.0,East,5.8,-,N/A,,Overcast,90,2012-12-29 04:56:00